Location: Buchberg
(46.9333°N, 15.8500°E)
Time: 09:51:45
(UTC+00:00)

Okean 1 - Pass Details

Date: 14 July 2020
Orbit: 538 x 556 km, 82.5° (Epoch: 07 August)

Event Time Altitude Azimuth Distance (km) Brightness Sun altitude
Rises 00:17:08 0° 348° (NNW) 2,707 7.9 -19.4°
Reaches altitude 10° 00:19:18 10° 345° (NNW) 1,811 6.8 -19.3°
Maximum altitude 00:23:15 64° 264° (W) 605 3.3 -19.1°
Enters shadow 00:24:00 51° 212° (SSW) 690 3.4 -19.0°
